Weather in Mocoa

Colombia     1°08′52″N   76°38′53″W
temp.,
°C
wind,
m/s
gust,
m/s
humid.,
%
clouds,
%
prec.,
mm/h
press.,
hPa
HPBL,
m
17 may, mon
mon1701:00+14wnw1197100 0.8 101831
04:00+12wnw219765 0.0 101722
07:00+13wnw229435 0.0 101850
10:00+17ese228873 0.8 1019726
13:00+16se229699 4.2 1017543
16:00+15se119991 1.9 1016217
19:00+14sse12100100 3.6 1018240
22:00+14s0099100 3.1 101971
18 may, tue
tue1801:00+14ese12100100 35.8 1017225
04:00+13sse12100100 26.8 1018113
07:00+12ssw1299100 34.1 1020143
10:00+13ssw1199100 3.6 102298
13:00+13se0199100 5.9 1019145
16:00+16sse0192100 1.1 1015264
19:00+13wnw219748 1.1 101823
22:00+12wnw2195100 0.0 102026
19 may, wed
wed1901:00+11wnw229623 0.0 102032
04:00+11wnw229413 0.0 101935
07:00+13wnw228465 0.0 101954
10:00+19ese326160 0.0 10181128
13:00+20ese325958 0.3 10161473
16:00+18se227499 0.3 1014934
19:00+14ssw019975 0.8 1017119
22:00+12w119858 0.2 101924
20 may, thu
thu2001:00+12wnw21959 0.2 101819
04:00+10wnw22955 0.0 101736
07:00+12wnw228939 0.0 101845
10:00+16ese117499 0.0 1019291
13:00+16ese117285 0.0 1017372
16:00+18ese216519 0.1 1013695
19:00+13wnw21951 0.1 101729
22:00+12wnw21892 0.0 101930
21 may, fri
fri2101:00+12wnw22903 0.0 101833
04:00+11wnw21926 0.0 101830
07:00+14w118623 0.0 101865
10:00+18ese227137 0.2 1018821
13:00+20se227343 1.0 10151067
16:00+17se129357 1.3 1013362
19:00+14wnw119743 1.9 101619
22:00+13wnw229758 0.3 101931